SPACEBEE-144 (52410 NORAD) Tracking and Keplerian Element Data

This shows tracking and keplerian element data for the satellite.

Feedback or suggestion? Click here.




ElementValue
Catalog52410
NameSPACEBEE-144
Epoch Orbit1745
Epoch Day228.63250953
Epoch Year2022
RAAN312.2119
Inclination97.4485
Eccentricity0.0007901
Argument of Perigee337.2927
Mean Anonmoly22.7954
Mean Motion15.14164935
Decay Rate6.27E-05
L11 52410U 22047S 22228.63250953 .00006270 00000+0 34706-3 0 9993
L22 52410 97.4485 312.2119 0007901 337.2927 22.7954 15.14164935 17455

Live tracking and technical data element details for SPACEBEE-144 (NORAD 52410). SPACEBEE-144 can be tracked NOW for your location showing map with azimuth and elevation plus other details from your city location.

Track the satellite on the map from your city or location and see movement details for azimuth, elevation, latitude, longitude, range, height, and movement on the map or in text.







IsCatalogInMostPopularTable: catalog: 52410, numindb: 5
Update: records affected: 1



GetName: 52410 SPACEBEE-144

Hit Count: updated at: Thu, 18 Aug 2022 20:53:50 GMT